Edinburgh Airport, United Kingdom

8:08 AM BST on September 20, 2017 (GMT +0100)
Edinburgh Airport

Weather History for EGPH - March, 2014

Change the Weather History Date:

Tuesday, March 4, 2014

  Actual Average Record
Temperature  
Mean Temperature 42 °F -  
Max Temperature 50 °F 49 °F 53 °F (2003)
Min Temperature 33 °F 35 °F 19 °F (2006)
Degree Days  
Heating Degree Days 24    
Moisture  
Dew Point 36 °F    
Average Humidity 79    
Maximum Humidity 93    
Minimum Humidity 62    
Precipitation  
Precipitation 0.00 in 0.07 in - ()
Sea Level Pressure  
Sea Level Pressure 29.45 in    
Wind  
Wind Speed 11 mph ()    
Max Wind Speed 25 mph    
Max Gust Speed 33 mph    
Visibility 6.2 miles    
Events Rain    
Averages and records for this station are not official NWS values.
T = Trace of Precipitation, MM = Missing Value Source: Averaged Metar Reports

Daily Weather History Graph

Daily Weather History Graph

Search for Another Location

Airport or City:

Trip Planner

Search our weather history database for the weather conditions in past years. The results will help you decide how hot, cold, wet, or windy it might be!

Date:

Astronomy

Mar. 04, 2014 Rise Set
Actual Time 6:57 AM GMT 5:53 PM GMT
Civil Twilight 6:20 AM GMT 6:30 PM GMT
Nautical Twilight 5:37 AM GMT 7:13 PM GMT
Astronomical Twilight 4:53 AM GMT 7:57 PM GMT
Moon 7:53 AM GMT (3/4) 10:33 PM GMT (3/4)
Length of Visible Light 12h 10m
Length of Day
10h 56m
Waxing Crescent, 13% of the Moon is Illuminated
Mar 4
Waxing Crescent
Mar 8
First Quarter
Mar 16
Full
Mar 24
Last Quarter
Mar 30
New

Hourly Weather History & Observations

Time (GMT) Temp. Windchill Dew Point Humidity Pressure Visibility Wind Dir Wind Speed Gust Speed Precip Events Conditions
12:20 AM 37.4 °F 31.4 °F 33.8 °F 87% 29.33 in - West 8.1 mph - N/A   Clear
12:50 AM 35.6 °F 32.8 °F 33.8 °F 93% 29.33 in - Variable 3.5 mph - N/A   Clear
1:20 AM 35.6 °F 30.7 °F 33.8 °F 93% 29.33 in - West 5.8 mph - N/A   Clear
1:50 AM 35.6 °F 29.9 °F 33.8 °F 93% 29.33 in 6.2 mi WSW 6.9 mph - N/A   Partly Cloudy
2:20 AM 35.6 °F 32.8 °F 33.8 °F 93% 29.33 in 6.2 mi West 3.5 mph - N/A   Partly Cloudy
2:50 AM 35.6 °F - 33.8 °F 93% 29.33 in - WSW 2.3 mph - N/A   Clear
3:20 AM 33.8 °F - 32.0 °F 93% 29.33 in - Calm Calm - N/A   Clear
3:50 AM 35.6 °F 31.7 °F 33.8 °F 93% 29.30 in 6.2 mi SW 4.6 mph - N/A   Scattered Clouds
4:20 AM 39.2 °F 31.6 °F 33.8 °F 81% 29.33 in 6.2 mi South 12.7 mph - N/A   Mostly Cloudy
4:50 AM 41.0 °F 34.3 °F 33.8 °F 76% 29.33 in 6.2 mi SSW 11.5 mph - N/A   Scattered Clouds
5:20 AM 39.2 °F 33.0 °F 33.8 °F 81% 29.33 in - SSW 9.2 mph - N/A   Clear
5:50 AM 41.0 °F 31.9 °F 35.6 °F 81% 29.30 in 6.2 mi SSW 19.6 mph - N/A   Partly Cloudy
6:20 AM 41.0 °F 31.9 °F 35.6 °F 81% 29.30 in 6.2 mi SSW 19.6 mph - N/A   Partly Cloudy
6:50 AM 41.0 °F 32.2 °F 35.6 °F 81% 29.30 in 6.2 mi SSW 18.4 mph - N/A Rain Light Rain Showers
7:20 AM 41.0 °F 32.2 °F 37.4 °F 87% 29.33 in 6.2 mi SSW 18.4 mph - N/A   Scattered Clouds
7:50 AM 41.0 °F 32.8 °F 37.4 °F 87% 29.33 in 6.2 mi SW 16.1 mph - N/A   Scattered Clouds
8:20 AM 41.0 °F 32.8 °F 37.4 °F 87% 29.33 in 6.2 mi SSW 16.1 mph - N/A   Scattered Clouds
8:50 AM 42.8 °F 34.8 °F 39.2 °F 87% 29.33 in 6.2 mi SW 17.3 mph - N/A   Partly Cloudy
9:20 AM 44.6 °F 37.2 °F 39.2 °F 81% 29.36 in 6.2 mi SW 17.3 mph - N/A   Partly Cloudy
9:50 AM 44.6 °F 36.4 °F 39.2 °F 81% 29.36 in 6.2 mi SW 20.7 mph 32.2 mph N/A   Partly Cloudy
10:20 AM 46.4 °F 38.7 °F 39.2 °F 76% 29.36 in 6.2 mi SW 20.7 mph - N/A   Partly Cloudy
10:50 AM 46.4 °F 38.3 °F 39.2 °F 76% 29.36 in 6.2 mi SW 23.0 mph - N/A   Partly Cloudy
11:20 AM 48.2 °F - 39.2 °F 71% 29.36 in 6.2 mi SW 20.7 mph - N/A   Scattered Clouds
11:50 AM 48.2 °F - 37.4 °F 66% 29.39 in 6.2 mi SW 25.3 mph - N/A   Mostly Cloudy
12:20 PM 48.2 °F - 37.4 °F 66% 29.39 in 6.2 mi SW 25.3 mph - N/A   Mostly Cloudy
12:50 PM 50.0 °F - 39.2 °F 66% 29.39 in 6.2 mi SW 23.0 mph - N/A   Scattered Clouds
1:20 PM 48.2 °F - 39.2 °F 71% 29.42 in 6.2 mi WSW 23.0 mph - N/A   Scattered Clouds
1:50 PM 50.0 °F - 39.2 °F 66% 29.42 in 6.2 mi WSW 21.9 mph 33.4 mph N/A   Scattered Clouds
2:20 PM 50.0 °F - 39.2 °F 66% 29.44 in 6.2 mi WSW 21.9 mph - N/A   Scattered Clouds
2:50 PM 50.0 °F - 39.2 °F 66% 29.44 in 6.2 mi WSW 20.7 mph - N/A   Scattered Clouds
3:20 PM 48.2 °F - 37.4 °F 66% 29.47 in 6.2 mi WSW 21.9 mph - N/A   Scattered Clouds
3:50 PM 46.4 °F 39.0 °F 37.4 °F 71% 29.47 in 6.2 mi WSW 19.6 mph - N/A   Scattered Clouds
4:20 PM 46.4 °F 39.5 °F 37.4 °F 71% 29.50 in 6.2 mi WSW 17.3 mph - N/A   Partly Cloudy
4:50 PM 48.2 °F - 35.6 °F 62% 29.50 in - West 13.8 mph - N/A   Clear
5:20 PM 46.4 °F 39.8 °F 35.6 °F 66% 29.53 in 6.2 mi WSW 16.1 mph - N/A   Partly Cloudy
5:50 PM 44.6 °F 37.8 °F 35.6 °F 71% 29.53 in - WSW 15.0 mph - N/A   Clear
6:20 PM 44.6 °F 38.4 °F 35.6 °F 71% 29.56 in - WSW 12.7 mph - N/A   Clear
6:50 PM 44.6 °F 38.1 °F 35.6 °F 71% 29.59 in 6.2 mi WSW 13.8 mph - N/A   Partly Cloudy
7:20 PM 42.8 °F 37.0 °F 35.6 °F 76% 29.62 in - WSW 10.4 mph - N/A   Clear
7:50 PM 42.8 °F 36.6 °F 35.6 °F 76% 29.62 in - SW 11.5 mph - N/A   Clear
8:20 PM 42.8 °F 36.2 °F 35.6 °F 76% 29.65 in - SW 12.7 mph - N/A   Clear
8:50 PM 42.8 °F 36.6 °F 35.6 °F 76% 29.65 in - WSW 11.5 mph - N/A   Clear
9:20 PM 41.0 °F 34.3 °F 35.6 °F 81% 29.68 in - WSW 11.5 mph - N/A   Clear
9:50 PM 41.0 °F 35.2 °F 35.6 °F 81% 29.68 in - WSW 9.2 mph - N/A   Clear
10:20 PM 41.0 °F 35.8 °F 37.4 °F 87% 29.71 in - SSW 8.1 mph - N/A   Clear
10:50 PM 39.2 °F 32.5 °F 37.4 °F 93% 29.71 in - WSW 10.4 mph - N/A   Clear
11:20 PM 41.0 °F 33.9 °F 37.4 °F 87% 29.74 in - WSW 12.7 mph - N/A   Clear
11:50 PM 41.0 °F 34.7 °F 37.4 °F 87% 29.77 in 6.2 mi WSW 10.4 mph - N/A   Unknown